• Em Portugal
  • Lista de países
  • Para 7 dias
  • Temperatura da água
  • Mapas de satélite
  • Mapa do tempo
  • Widgets de tempo
  • user-avatar
    Iniciar Sessão

    Previsão horária em Kamionka

    Hoje, 26 Setembro, Quarta-feira

    Tempo Temperatura Precipitação Vento Pressão Humidade
    00:00 +2°C° 0 mm 2 m/s 719 mmHg 75%
    01:00 +2°C° 0 mm 2 m/s 719 mmHg 75%
    02:00 +2°C° 0 mm 2 m/s 719 mmHg 76%
    03:00 +2°C° 0 mm 2 m/s 719 mmHg 76%
    04:00 +1°C° 0 mm 2 m/s 719 mmHg 77%
    05:00 +2°C° 0 mm 2 m/s 719 mmHg 75%
    06:00 +2°C° 0 mm 2 m/s 719 mmHg 74%
    07:00 +3°C° 0 mm 2 m/s 719 mmHg 73%
    08:00 +4°C° 0 mm 3 m/s 719 mmHg 64%
    09:00 +7°C° 0 mm 3 m/s 719 mmHg 56%
    10:00 +8°C° 0 mm 4 m/s 719 mmHg 47%
    11:00 +10°C° 0 mm 4 m/s 719 mmHg 45%
    12:00 +11°C° 0 mm 4 m/s 718 mmHg 43%
    13:00 +10°C° 0 mm 5 m/s 718 mmHg 41%
    14:00 +12°C° 0 mm 4 m/s 717 mmHg 42%
    15:00 +12°C° 0 mm 4 m/s 716 mmHg 43%
    16:00 +12°C° 0 mm 4 m/s 716 mmHg 44%
    17:00 +10°C° 0 mm 4 m/s 716 mmHg 47%
    18:00 +8°C° 0 mm 4 m/s 715 mmHg 51%
    19:00 +7°C° 0 mm 4 m/s 715 mmHg 54%
    20:00 +6°C° 0 mm 4 m/s 715 mmHg 55%
    21:00 +6°C° 0 mm 4 m/s 715 mmHg 56%
    22:00 +6°C° 0 mm 4 m/s 715 mmHg 57%
    23:00 +7°C° 0 mm 3 m/s 715 mmHg 57%

    Amanhã, 27 Setembro, Quinta-feira

    Tempo Temperatura Precipitação Vento Pressão Humidade
    00:00 +7°C° 0 mm 3 m/s 715 mmHg 58%
    01:00 +7°C° 0 mm 3 m/s 715 mmHg 58%
    02:00 +7°C° 0 mm 3 m/s 714 mmHg 59%
    03:00 +7°C° 0 mm 3 m/s 714 mmHg 59%
    04:00 +7°C° 0 mm 3 m/s 714 mmHg 59%
    05:00 +7°C° 0 mm 3 m/s 714 mmHg 60%
    06:00 +7°C° 0 mm 3 m/s 714 mmHg 60%
    07:00 +8°C° 0 mm 3 m/s 714 mmHg 61%
    08:00 +10°C° 0 mm 3 m/s 714 mmHg 58%
    09:00 +12°C° 0 mm 3 m/s 715 mmHg 56%
    10:00 +14°C° 0 mm 3 m/s 715 mmHg 53%
    11:00 +16°C° 0 mm 3 m/s 715 mmHg 53%
    12:00 +17°C° 0 mm 3 m/s 714 mmHg 52%
    13:00 +18°C° 0 mm 3 m/s 714 mmHg 52%
    14:00 +18°C° 0 mm 3 m/s 714 mmHg 52%
    15:00 +18°C° 0 mm 3 m/s 713 mmHg 53%
    16:00 +18°C° 0 mm 3 m/s 712 mmHg 54%
    17:00 +17°C° 0 mm 3 m/s 712 mmHg 58%
    18:00 +14°C° 0 mm 3 m/s 711 mmHg 62%
    19:00 +13°C° 0 mm 2 m/s 711 mmHg 66%
    20:00 +12°C° 0 mm 3 m/s 711 mmHg 66%
    21:00 +11°C° 0 mm 3 m/s 710 mmHg 66%
    22:00 +11°C° 0 mm 3 m/s 710 mmHg 66%
    23:00 +11°C° 0 mm 3 m/s 709 mmHg 66%

    Depois de amanhã, 28 Setembro, Sexta-feira

    Tempo Temperatura Precipitação Vento Pressão Humidade
    00:00 +10°C° 0 mm 3 m/s 709 mmHg 67%
    01:00 +10°C° 0 mm 3 m/s 708 mmHg 67%
    02:00 +9°C° 0 mm 3 m/s 708 mmHg 67%
    03:00 +9°C° 0 mm 3 m/s 708 mmHg 68%
    04:00 +8°C° 0 mm 2 m/s 707 mmHg 69%
    05:00 +8°C° 0 mm 2 m/s 707 mmHg 69%
    06:00 +8°C° 0 mm 2 m/s 707 mmHg 69%
    07:00 +8°C° 0 mm 2 m/s 707 mmHg 69%
    08:00 +10°C° 0 mm 2 m/s 708 mmHg 65%
    09:00 +12°C° 0 mm 3 m/s 708 mmHg 62%
    10:00 +13°C° 0 mm 3 m/s 708 mmHg 58%
    11:00 +14°C° 0 mm 3 m/s 708 mmHg 59%
    12:00 +14°C° 0 mm 3 m/s 708 mmHg 59%
    13:00 +14°C° 0 mm 4 m/s 708 mmHg 60%
    14:00 +13°C° 0 mm 4 m/s 708 mmHg 63%
    15:00 +13°C° 0 mm 4 m/s 708 mmHg 66%
    16:00 +12°C° 0 mm 4 m/s 707 mmHg 69%
    17:00 +11°C° 0 mm 3 m/s 708 mmHg 73%
    18:00 +9°C° 0 mm 3 m/s 708 mmHg 76%
    19:00 +8°C° 0 mm 2 m/s 708 mmHg 79%
    20:00 +8°C° 0 mm 2 m/s 708 mmHg 78%
    21:00 +7°C° 0 mm 2 m/s 708 mmHg 76%
    22:00 +7°C° 0 mm 2 m/s 708 mmHg 75%
    23:00 +7°C° 0 mm 2 m/s 709 mmHg 74%

    29 Setembro, Sábado

    Tempo Temperatura Precipitação Vento Pressão Humidade
    00:00 +6°C° 0 mm 2 m/s 709 mmHg 73%
    01:00 +6°C° 0 mm 2 m/s 709 mmHg 72%
    02:00 +6°C° 0 mm 2 m/s 709 mmHg 72%
    03:00 +6°C° 0 mm 2 m/s 709 mmHg 73%
    04:00 +5°C° 0 mm 2 m/s 709 mmHg 73%
    05:00 +5°C° 0 mm 2 m/s 709 mmHg 74%
    06:00 +3°C° 0 mm 3 m/s 710 mmHg 75%
    07:00 +3°C° 0 mm 3 m/s 710 mmHg 75%
    08:00 +4°C° 0 mm 3 m/s 710 mmHg 68%
    09:00 +7°C° 0 mm 3 m/s 711 mmHg 61%
    10:00 +7°C° 0 mm 4 m/s 711 mmHg 54%
    11:00 +8°C° 0 mm 4 m/s 711 mmHg 51%
    12:00 +8°C° 0 mm 4 m/s 711 mmHg 48%
    13:00 +10°C° 0 mm 4 m/s 711 mmHg 45%
    14:00 +10°C° 0 mm 3 m/s 711 mmHg 46%
    15:00 +9°C° 0 mm 3 m/s 711 mmHg 47%
    16:00 +9°C° 0 mm 3 m/s 711 mmHg 48%
    17:00 +8°C° 0 mm 2 m/s 712 mmHg 54%
    18:00 +6°C° 0 mm 2 m/s 712 mmHg 59%
    19:00 +6°C° 0 mm 1 m/s 712 mmHg 64%
    20:00 +5°C° 0 mm 1 m/s 712 mmHg 65%
    21:00 +5°C° 0 mm 1 m/s 712 mmHg 66%
    22:00 +5°C° 0 mm 1 m/s 712 mmHg 67%
    23:00 +4°C° 0 mm 1 m/s 712 mmHg 68%

    30 Setembro, Domingo

    Tempo Temperatura Precipitação Vento Pressão Humidade
    00:00 +4°C° 0 mm 1 m/s 712 mmHg 69%
    01:00 +4°C° 0 mm 1 m/s 712 mmHg 70%
    02:00 +4°C° 0 mm 1 m/s 712 mmHg 72%
    03:00 +3°C° 0 mm 1 m/s 711 mmHg 73%
    04:00 +2°C° 0 mm 0 m/s 711 mmHg 75%
    05:00 +4°C° 0 mm 1 m/s 711 mmHg 74%
    06:00 +4°C° 0 mm 1 m/s 711 mmHg 73%
    07:00 +5°C° 0 mm 1 m/s 711 mmHg 72%
    08:00 +7°C° 0 mm 1 m/s 712 mmHg 63%
    09:00 +9°C° 0 mm 1 m/s 712 mmHg 55%
    10:00 +10°C° 0 mm 2 m/s 712 mmHg 46%
    11:00 +10°C° 0 mm 2 m/s 712 mmHg 43%
    12:00 +12°C° 0 mm 2 m/s 711 mmHg 40%
    13:00 +13°C° 0 mm 2 m/s 711 mmHg 37%
    14:00 +13°C° 0 mm 2 m/s 710 mmHg 38%
    15:00 +13°C° 0 mm 2 m/s 710 mmHg 40%
    16:00 +12°C° 0 mm 2 m/s 709 mmHg 41%
    17:00 +10°C° 0 mm 2 m/s 709 mmHg 46%
    18:00 +8°C° 0 mm 2 m/s 708 mmHg 51%
    19:00 +7°C° 0 mm 1 m/s 708 mmHg 56%
    20:00 +6°C° 0 mm 1 m/s 708 mmHg 57%
    21:00 +6°C° 0 mm 1 m/s 707 mmHg 58%
    22:00 +5°C° 0 mm 1 m/s 707 mmHg 59%
    23:00 +5°C° 0 mm 1 m/s 706 mmHg 59%

    1 Outubro, Segunda-feira

    Tempo Temperatura Precipitação Vento Pressão Humidade
    00:00 +5°C° 0 mm 1 m/s 706 mmHg 60%
    01:00 +5°C° 0 mm 1 m/s 705 mmHg 61%
    02:00 +5°C° 0 mm 1 m/s 705 mmHg 62%
    03:00 +4°C° 0 mm 1 m/s 704 mmHg 63%
    04:00 +4°C° 0 mm 1 m/s 704 mmHg 64%
    05:00 +5°C° 0 mm 1 m/s 704 mmHg 64%
    06:00 +5°C° 0 mm 1 m/s 703 mmHg 65%
    07:00 +6°C° 0 mm 1 m/s 703 mmHg 65%
    08:00 +7°C° 0 mm 2 m/s 703 mmHg 61%
    09:00 +9°C° 0 mm 2 m/s 703 mmHg 56%
    10:00 +11°C° 0 mm 3 m/s 703 mmHg 51%
    11:00 +12°C° 0 mm 3 m/s 702 mmHg 48%
    12:00 +13°C° 0 mm 3 m/s 702 mmHg 46%
    13:00 +14°C° 0 mm 3 m/s 702 mmHg 44%
    14:00 +14°C° 0 mm 3 m/s 701 mmHg 45%
    15:00 +15°C° 0 mm 2 m/s 701 mmHg 46%
    16:00 +15°C° 0 mm 2 m/s 700 mmHg 47%
    17:00 +13°C° 0 mm 2 m/s 700 mmHg 53%
    18:00 +10°C° 0 mm 2 m/s 699 mmHg 58%
    19:00 +9°C° 0 mm 1 m/s 699 mmHg 64%
    20:00 +8°C° 0 mm 1 m/s 699 mmHg 65%
    21:00 +8°C° 0 mm 1 m/s 699 mmHg 67%
    22:00 +7°C° 0 mm 1 m/s 699 mmHg 69%
    23:00 +7°C° 0 mm 1 m/s 699 mmHg 69%
    Mostrar mais